Weather in Myropil

Ukraine / Zhytomyr Region     50°06′35″N   27°41′48″E
temp.,
°C
wind,
m/s
gust,
m/s
humid.,
%
clouds,
%
prec.,
mm/h
press.,
hPa
HPBL,
m
8 august, mon
mon800:00+15n269868 0.3 1021214
03:00+15n35979 0.5 1021155
06:00+14nne379541 0.0 1022182
09:00+17ne467296 0.0 1022409
12:00+22ne445496 0.0 1022931
15:00+25ne444610 0.0 10211349
18:00+24ne445175 0.0 10211141
21:00+20nne495781 0.0 1021313
9 august, tue
tue900:00+19ne3860100 0.0 1022260
03:00+18ne3766100 0.1 1022183
06:00+16ne3681100 0.5 1022177
09:00+16nne2687100 1.1 1023258
12:00+19ne4565100 0.3 1023791
15:00+18nne5762100 0.6 1023707
18:00+17nne3667100 0.0 1023344
21:00+15n3380100 0.0 102345
10 august, wed
wed1000:00+14n338576 0.0 102355
03:00+13n3790100 0.0 1022135
06:00+14nne2582100 0.0 1022134
09:00+18ne3561100 0.0 1022341
12:00+21nne5648100 0.0 10221256
15:00+23nne564022 0.0 10212070
18:00+21nne4847100 0.0 1021502
21:00+19nne51151100 0.0 1021568
11 august, thu
thu1100:00+18ne2462100 0.1 102197
03:00+14nne347896 0.1 102153
06:00+14nne3877100 0.0 1021163
09:00+18nne51060100 0.0 1021494
12:00+21ne7851100 0.0 10201053
15:00+24ne574893 0.1 10191484
18:00+24nne3658100 0.6 1018874
21:00+19ne512815 1.3 1018304
12 august, fri
fri1200:00+17ne51492100 3.1 1019397
03:00+16ne3996100 3.4 1019220
06:00+15ne399768 0.0 1019212
09:00+19e598699 0.8 1020472
12:00+24ene5664100 0.1 1019721
15:00+27ene4649100 0.1 10181342
18:00+25e4656100 0.2 10181060
21:00+18e36905 0.3 1019119